Location: ActonStarParty
(42.4766°N, 71.4538°W)
Time: 01:03:31
(UTC-05:00)

ISS - Visible Passes

Search period start: 25 February 2018 00:00
Search period end: 07 March 2018 00:00
Orbit: 402 x 407 km, 51.6° (Epoch: 25 February)

Date Brightness Start Highest point End Pass type
(mag) Time Alt. Az. Time Alt. Az. Time Alt. Az.
25 Feb -1.5 05:51:20 10° SSW 05:54:05 25° SE 05:56:51 10° ENE visible
26 Feb -0.9 05:00:17 10° SSE 05:02:02 14° SE 05:03:48 10° E visible
27 Feb -3.3 05:42:40 10° SW 05:45:53 60° SE 05:49:07 10° ENE visible
28 Feb -2.2 04:51:50 18° S 04:53:43 31° SE 04:56:40 10° ENE visible
01 Mar -1.1 04:02:06 17° ESE 04:02:06 17° ESE 04:03:50 10° E visible
01 Mar -3.7 05:34:47 12° WSW 05:37:47 60° NNW 05:41:01 10° NE visible
02 Mar -3.8 04:44:53 56° SSW 04:45:28 76° SE 04:48:44 10° ENE visible
03 Mar -1.3 03:54:52 22° E 03:54:52 22° E 03:56:19 10° ENE visible
03 Mar -2.8 05:27:32 15° W 05:29:45 32° NNW 05:32:45 10° NE visible
04 Mar -3.4 04:37:23 49° NNW 04:37:23 49° NNW 04:40:32 10° NE visible
05 Mar -1.1 03:47:11 19° NE 03:47:11 19° NE 03:48:14 10° NE visible
05 Mar -2.1 05:19:50 14° WNW 05:21:47 22° NNW 05:24:25 10° NE visible
06 Mar -2.4 04:29:33 28° N 04:29:33 28° N 04:32:09 10° NE visible
